Regional Weather Roundup
Issued by NWS Kansas City/Pleasant Hill, MO

Home | Current Version | Previous Version | Graphics & Text | Print | Product List | Glossary Off
Versions: 1 2 3 4 5 6 7 8 9 10 11 12 13 14 15 16 17 18 19 20 21 22 23 24 25 26 27 28

000
ASUS43 KEAX 221310
RWREAX

WEATHER ROUNDUP FOR EASTERN KANSAS AND NORTHWEST MISSOURI
NATIONAL WEATHER SERVICE KANSAS CITY/PLEASANT HILL MO
800 AM CDT TUE AUG 22 2017

KSZ040-057-103>105-MOZ028-029-037-043-221400-
...KANSAS CITY METROPOLITAN AREA...

CITY           SKY/WX    TMP DP  RH WIND       PRES   REMARKS
K.C. INTL      CLOUDY    66  65  96 N8        30.08R
K.C. DOWNTOWN  PTSUNNY   68  67  96 CALM      30.06R
LEES SUMMIT    CLOUDY    66  66 100 MISG      30.08R
OLATHE - IXD   CLOUDY    66  66 100 N6        30.08R
OLATHE - OJC   CLOUDY    66  66 100 N5        30.08R
LAWRENCE       CLOUDY    68  67  96 NW3       30.08R

$$

MOZ001>008-011>017-020>025-030>033-038>040-044>046-053-054-221400-
...NORTHERN AND CENTRAL MISSOURI...

CITY           SKY/WX    TMP DP  RH WIND       PRES   REMARKS
ST. JOSEPH     CLOUDY    66  66 100 N5        30.09R
MOSBY          CLOUDY    66  64  94 NW5       30.07R
WARRENSBURG    CLOUDY    64  64 100 W7        30.07R
WHITEMAN AFB   CLOUDY    66  66 100 W10       30.04R
CLINTON        CLOUDY    68  68 100 W9        30.06R
SEDALIA        CLOUDY    70  70 100 NW8       30.04R
WARSAW         NOT AVBL
CHILLICOTHE      N/A     67  67 100 N5        30.06R
KIRKSVILLE     CLOUDY    66  65  96 NW7       30.03R

$$

MOZ041-047>049-056>058-063>065-088>090-097-221400-
...EASTERN AND SOUTHERN MISSOURI...

CITY           SKY/WX    TMP DP  RH WIND       PRES   REMARKS
ST. LOUIS INTL LGT RAIN  71  71 100 S8        29.96F
SPIRIT OF STL  LGT RAIN  71  70  96 S6        29.94F
COLUMBIA       LGT RAIN  70  70 100 W7        30.01R
JEFFERSON CITY LGT RAIN  72  72 100 NW9       29.99R
ROLLA          RAIN      69  69 100 SE8       30.01F
OSAGE BEACH    LGT RAIN  70  69  97 W7        30.04R
SPRINGFIELD    LGT RAIN  68  68 100 W8        30.09R
BRANSON        PTSUNNY   75  72  88 NW21G29   30.12R THUNDER
JOPLIN         CLOUDY    68  68 100 NE6       30.11S FOG
WEST PLAINS    MOSUNNY   75  72  90 SW10      30.03S

$$

IAZ060-094-KSZ022-034>040-054-083-096-NEZ052-066-093-221400-
...KANSAS...SOUTHEAST NEBRASKA AND IOWA...

CITY           SKY/WX    TMP DP  RH WIND       PRES   REMARKS
TOPEKA         CLOUDY    67  67 100 N8        30.08R
MANHATTAN      CLOUDY    69  66  90 NE8       30.09R
EMPORIA        CLOUDY    70  68  93 SE8       30.04R
CHANUTE        MOSUNNY   71  68  90 E8        30.06S
WICHITA        MOSUNNY   74  72  93 CALM      30.02R
OMAHA          MOSUNNY   64  61  90 N10       30.13R
LINCOLN        SUNNY     65  60  84 N9        30.16R
FALLS CITY     MOSUNNY   65  64  97 NW7       30.10R
LAMONI         CLOUDY    65  64  97 NW9       30.07R
DES MOINES     MOSUNNY   66  62  87 NW9       30.04R

$$





USA.gov is the U.S. government's official web portal to all federal, state and local government web resources and services.